Погода в Витебске

Поиск расширенной информации на нашем сайте:

Полезная информация:

Новости сайта



02.01.2020
Опубликован Долгосрочный прогноз погоды по городам России и ближнего зарубежья на январь 2020 года.
Карты: Прогноз на январь и февраль 2020 года, Сравнение прогнозируемой аномалии приземной температуры воздуха на январь 2020 года по разным моделям.




Погода в Витебске - сегодня

Время (UTC), дата Ветер
(°,м/с) 
Видим.   Явления Облачность Т
(°С)
Тd
(°С)
f(%) Тe
(°С)
Pmin
(гПа)
dP
(гПа)
Po
(мм)
O2
(г/м3)
Тmin Tmax R s Состояние
почвы
15 27.03.20 040 (СВ) 21000 м    10/0 средняя, верхняя 
[As trans|Ci sp]
+12.8 -5.8 27 +13  1029.7  -2.7  756  292           
18 27.03.20 тихо ()   12000 м    5/0 средняя, верхняя 
[Ac lent|Ci fib]
+7.3 -4.5 43 +7  1028.7  -1.4  755  297    +13.9       
21 27.03.20 тихо ()   18000 м    ясно 
+3.4 -4.8 55 +3  1027.9  -1.1  754  301           
00 28.03.20 090 (В) 25000 м    ясно 
+4 -6.3 47 +5  1026.2  -1.6  753  300           
03 28.03.20 тихо ()   14000 м    ясно 
-1 -5.4 72 -1  1024.8  -1.8  752  305           
06 28.03.20 тихо ()   12000 м    3/0 верхняя 
[Ci fib]
+2.8 -3.8 62 +3  1023.3  -1.2  751  300  -1.6         
09 28.03.20 тихо ()   13000 м    5/0 верхняя 
[Cs]
+12 -3.4 34 +12  1021.2  -1.3  750  290           
12 28.03.20 240 (ЮЗ) 14000 м    9/0 верхняя 
[Cs]
+15.4 -5.6 23 +16  1018.3  -2.5  748  286           
15 28.03.20 210 (ЮЗ) 15000 м    4/0 верхняя 
[Cs]
+15.7 -6.6 21 +17  1015.5  -2.7  746  285           
18 28.03.20 тихо ()   5000 м  дым  6/0 верхняя 
[Cs]
+9.8 -3.2 40 +10  1014.9  -1.1  745  290    +16.9       
21 28.03.20 тихо ()   4000 м  дым  10/0 средняя 
[As trans]
+6.1 -0.9 61 +6  1014.1  -1.1  744  293           
00 29.03.20 тихо ()   6000 м  дым  10/0 верхняя 
[Cs]
+4.8 -1.2 65 +5  1012.5  -1.7  743  294           
03 29.03.20 тихо ()   6000 м  дым  10/0 средняя 
[As trans]
+2.2 -1.2 78 +2  1010.8  -1.8  742  297           
06 29.03.20 тихо ()   12000 м    9/0 средняя 
[Ac As]
+4.7 -0.1 71 +5  1009.6  -1  741  294  +1.6         
09 29.03.20 020 (С) 8000 м  дым  9/0 средняя 
[Ac As]
+11.3 -2.9 37 +12  1008.7  -0.4  741  287           
12 29.03.20 360 (С) 19000 м    9/0 средняя 
[Ac und]
+10 -2.7 41 +9  1008.6  -0.2  741  288           
15 29.03.20 020 (С) 23000 м    10/0 средняя 
[As op]
+7.2 -1 56 +6  1008.9  0.1  741  291           
18 29.03.20 010 (С) 4{11}  21000 м  в посл. час ливневой снег  10/10 270 м 
[St]
+0.8 -0.2 93 -2  1011.6  2.1  742  298    +13.3  0.1     
21 29.03.20 020 (С) 5{10}  5000 м  слаб. снег  10/10 400 м 
[Frnb|Ns]
-0.8 -2.7 87 -4  1012.1  0.4  743  300           
00 30.03.20 020 (С) 5{11}  30000 м  в посл. час снег  10/10 420 м 
[St]
-1.8 -4 85 -5  1012.4  0.2  743  302           
03 30.03.20 010 (С) 5-10{12}  4200 м  слаб. снег  10/10 360 м 
[Frnb|Ns]
-3.1 -5.1 86 -7  1012.9  0.4  743  303      0.9   
06 30.03.20 010 (С) 4{12}  20000 м  в посл. час снег  10/10 240 м 
[St]
-2.9 -8.2 67 -6  1013.9  744  304  -4.1    равномерный
сухой снег
100% 
09 30.03.20 010 (С) 5{12}  9000 м  слаб. снег  10/8 750 м средняя 
[Sc|As op]
-1.6 -6.5 69 -5  1014.9  1.1  745  302           
12 30.03.20 020 (С) 5-10{13}  30000 м  {снег}  10/5 600 м средняя 
[Sc|As op]
-0.1 -8.5 53 -3  1015.4  0.6  745  301           
15 30.03.20 030 (СВ) 4{11}  35000 м    10/0 средняя 
[As op]
+0 -10 47 -2  1015.8  0.4  745  301      0.0     
Время (UTC), дата Ветер
(°,м/с) 
Видим.   Явления Облачность Т
(°С)
Тd
(°С)
f(%) Тe
(°С)
Pmin
(гПа)
dP
(гПа)
Po
(мм)
O2
(г/м3)
Тmin Tmax R s Состояние
почвы

Для получения пояснительной информации подведите курсор к названию столбца.

ПОГОДА в Витебске - архив

Всё, что Вы хотите узнать о погоде в Витебске - удобно и подробно!

Выберите нужную дату (начиная с 1 января 2019* года) и нажмите кнопку "Найти".
Будут отображены архивные сводки погоды по пункту Витебск, начиная с указанной даты.


Отображать данные в формате CSV (для использования в таблицах Excel)


Внимание! Наш архив погоды предназначен исключительно для личного некоммерческого использования в познавательных целях. Если Вам необходимы официальные справки о состоянии погоды (для производственных, юридических, коммерческих и т.п. целей), обращайтесь в органы Росгидромета.

*Примечание: данная дата относится к архиву по метеостанциям СССР (Россия, СНГ, Балтия).
Архив по метеостанциям Зарубежной Европы и Азии (кроме Китая) хранится 10 дней, по другим регионам земного шара (Китай, Африка, Америка, Австралия, Океания) - 1 день.

Витебск - район местоположения метеостанции


Название, широта, долгота, высота метеостанции:
Витебск (город) 55.1°ш. 30.3°д. 170 м над ур. моря [Беларусь]

Дополнительная информация

В oтличие oт бoльшинства пoгoдных сайтoв мы публикуем пoдрoбную метеoинфoрмацию в детальнoм прoфессиoнальнoм фoрмате.

Характеристики температуры и влажнoсти вoздуха измеряются на высoте 2 м в тени вдали oт зданий и деревьев.
Скoрoсть ветра измеряется на высoте 10 м (на урoвне рoста челoвека скoрoсть ветра ниже в 1.5-2 раза). Если метеoстанция нахoдится в гoрoде или в лесу, тo скoрoсть ветра занижена на 2-4 м/с пo сравнению с oткрытым местoм. Скoрoсть ветра над акватoриями крупных рек и oзёр, а также на вершинах хoлмoв на 2-5 м/с выше, чем в oбычных услoвиях.
Атмoсфернoе давление в разных тoчках местнoсти мoжет значительнo oтличаться oт давления на метеoстанции, в зависимoсти oт услoвий рельефа (при пoдъёме на 10 м давление пoнижается примернo на 1 мм рт.ст.).